Find Starlink 34514

NORAD ID: 64416 Int'l Des: 2025-129 Owner: SPXS Country: US Constellation: starlink operational
LEOCIRCULAR

現在のビュー

3D地球を読み込み中...

About Starlink 34514

Starlink 34514 (NORAD 64416) is a starlink constellation satellite (v2 mini) launched Jun 17, 2025 by SPXS of US. It operates in LEO, CIRCULAR orbit with a mass of 575.00 kg.

次回通過

Passes for default location (London). Set your location on the main map for personalized predictions.

高度履歴

Loading altitude history...

軌道要素

1 64416U 25129E 26263.50834156 .00007599 00000-0 26842-3 0 9996
2 64416 70.0004 300.6836 0003397 275.2580 84.8208 15.29593056 70531
Epoch: Sep 20, 2026 • Age: 16 hours

現在のステータス

高度 481.9 km
遠地点 / 近地点 N/A
速度 7.63 km/s
衛星直下点 31.33°N, 38.08°E
打ち上げ日 Jun 17, 2025
運用期間 1.2 years
タイプ internet

技術仕様

分類 Payload
質量 575.00 kg
乾燥質量 530.00 kg
長さ 0.30 m
スパン 29.00 m
形状 ? Box + pan
製造者 SPXS
バスタイプ Starlink V2MO
フェーズステータス In Orbit
所有者/国 SPXS/US

Most Searched